Weather History for Lugano, Switzerland

Change the Weather History Date:

Wednesday, May 29, 2013

  Actual Average Record
Temperature  
Mean Temperature 54 °F -  
Max Temperature 62 °F 72 °F - ()
Min Temperature 47 °F 57 °F - ()
Degree Days  
Heating Degree Days 10    
Growing Degree Days 4 (Base 50)    
Moisture  
Dew Point 46 °F    
Average Humidity 74    
Maximum Humidity 100    
Minimum Humidity 45    
Precipitation  
Precipitation 0.43 in 0.23 in - ()
Sea Level Pressure  
Sea Level Pressure 29.59 in    
Wind  
Wind Speed 6 mph ()    
Max Wind Speed 22 mph    
Max Gust Speed 21 mph    
Visibility 5.1 miles    
Events Rain , Thunderstorm    
T = Trace of Precipitation, MM = Missing Value Source: Averaged Metar Reports

Daily Weather History Graph

Daily Weather History Graph

Search for Another Location

Airport:

Trip Planner

Search our weather history database for the weather conditions in past years. The results will help you decide how hot, cold, wet, or windy it might be!

Date:

Astronomy

May. 29, 2013 Rise Set
Actual Time 5:39 AM CEST 9:05 PM CEST
Civil Twilight 5:02 AM CEST 9:42 PM CEST
Nautical Twilight 4:13 AM CEST 10:31 PM CEST
Astronomical Twilight 3:10 AM CEST 11:34 PM CEST
Moon 12:09 AM CEST (5/29) 10:26 AM CEST (5/29)
Length of Visible Light 16h 40m
Length of Day
15h 25m
Waning Gibbous, 76% of the Moon is Illuminated
May 29
Waning Gibbous
May 31
Last Quarter
Jun 8
New
Jun 16
First Quarter
Jun 23
Full

Hourly Weather History & Observations

Time (CEST) Temp. Dew Point Humidity Pressure Visibility Wind Dir Wind Speed Gust Speed Precip Events Conditions
12:00 AM 54 °F 53 °F 97% 29.65 in - East 2.3 mph - -  
12:20 AM 53.6 °F 53.6 °F 100% 29.62 in - Variable 2.3 mph - N/A Rain Light Rain
12:50 AM 53.6 °F 53.6 °F 100% 29.62 in 1.2 mi Variable 1.2 mph - N/A Rain Light Rain
1:00 AM 54 °F 54 °F 98% 29.64 in - Calm Calm - -  
1:20 AM 53.6 °F 53.6 °F 100% 29.62 in 3.7 mi South 4.6 mph - N/A Rain Light Rain
1:50 AM 53.6 °F 50.0 °F 88% 29.62 in 6.2 mi SSW 6.9 mph - N/A Rain Light Rain
2:20 AM 51.8 °F 50.0 °F 94% 29.62 in - South 6.9 mph - N/A Rain Heavy Rain
2:50 AM 51.8 °F 50.0 °F 94% 29.59 in 6.2 mi Variable 1.2 mph - N/A Rain Light Rain
3:00 AM 51 °F 50 °F 96% 29.61 in - NNE 3.5 mph - -  
3:20 AM 51.8 °F 50.0 °F 94% 29.59 in 3.1 mi Variable 1.2 mph - N/A Rain Rain
3:50 AM 51.8 °F 50.0 °F 94% 29.59 in 5.6 mi Variable 1.2 mph - N/A Rain Light Rain
4:20 AM 51.8 °F 50.0 °F 94% 29.56 in - Variable 1.2 mph - N/A Rain Light Rain
4:50 AM 51.8 °F 50.0 °F 94% 29.56 in 4.3 mi Variable 3.5 mph - N/A   Scattered Clouds
5:20 AM 51.8 °F 51.8 °F 100% 29.53 in 3.1 mi Variable 2.3 mph - N/A Rain Light Rain
5:50 AM 51.8 °F 50.0 °F 94% 29.53 in 2.8 mi Variable 1.2 mph - N/A Rain Light Rain
6:00 AM 51 °F 51 °F 99% 29.54 in - NNW 3.5 mph - -  
6:20 AM 51.8 °F 50.0 °F 94% 29.53 in - Variable 1.2 mph - N/A Rain Rain
6:50 AM 51.8 °F 50.0 °F 94% 29.53 in 1.9 mi Variable 2.3 mph - N/A Rain Rain Showers
7:00 AM 51 °F 51 °F 99% 29.54 in - WNW 1.2 mph - -  
7:20 AM 48.2 °F 46.4 °F 93% 29.53 in 2.5 mi West 12.7 mph - N/A Rain Rain Showers
7:50 AM 48.2 °F 46.4 °F 93% 29.56 in 2.5 mi ESE 5.8 mph - N/A Rain Rain Showers
8:20 AM 48.2 °F 46.4 °F 93% 29.56 in 2.8 mi Variable 4.6 mph - N/A Rain Light Rain
8:50 AM 48.2 °F 46.4 °F 93% 29.59 in 2.5 mi Variable 6.9 mph - N/A Rain Rain Showers
9:00 AM 48 °F 45 °F 87% 29.60 in - NW 5.8 mph - -  
9:20 AM 48.2 °F 44.6 °F 87% 29.59 in 2.8 mi Variable 3.5 mph - N/A Rain Rain Showers
9:50 AM 48.2 °F 46.4 °F 93% 29.59 in 3.1 mi Variable 3.5 mph - N/A Rain Rain Showers
10:00 AM 47 °F 44 °F 84% 29.62 in - NW 10.4 mph - -  
10:20 AM 48.2 °F 44.6 °F 87% 29.59 in 4.3 mi North 10.4 mph - N/A Rain Rain Showers
10:50 AM 50.0 °F 48.2 °F 94% 29.59 in 5.6 mi NNE 10.4 mph - N/A   Scattered Clouds
11:20 AM 50.0 °F 42.8 °F 76% 29.59 in 6.2 mi North 17.3 mph - N/A   Scattered Clouds
11:50 AM 53.6 °F 44.6 °F 72% 29.59 in 6.2 mi North 19.6 mph - N/A   Scattered Clouds
12:00 PM 53 °F 45 °F 65% 29.60 in - ESE 6.9 mph - -  
12:20 PM 55.4 °F 44.6 °F 67% 29.59 in 6.2 mi North 19.6 mph - N/A   Scattered Clouds
12:50 PM 59.0 °F 41.0 °F 51% 29.59 in 6.2 mi North 19.6 mph - N/A   Scattered Clouds
1:00 PM 58 °F 46 °F 55% 29.58 in - ESE 8.1 mph - -  
1:20 PM 60.8 °F 42.8 °F 52% 29.56 in 6.2 mi North 18.4 mph - N/A   Scattered Clouds
1:50 PM 62.6 °F 42.8 °F 48% 29.59 in 6.2 mi North 13.8 mph - N/A   Scattered Clouds
2:20 PM 62.6 °F 44.6 °F 52% 29.56 in 6.2 mi North 15.0 mph - N/A   Scattered Clouds
2:50 PM 62.6 °F 42.8 °F 48% 29.56 in 6.2 mi North 13.8 mph - N/A   Scattered Clouds
3:00 PM 61 °F 46 °F 48% 29.57 in - ESE 5.8 mph - -  
3:20 PM 62.6 °F 42.8 °F 48% 29.56 in 6.2 mi North 11.5 mph - N/A   Scattered Clouds
3:50 PM 62.6 °F 42.8 °F 48% 29.56 in 6.2 mi North 12.7 mph - N/A   Scattered Clouds
4:00 PM 61 °F 46 °F 47% 29.56 in - ESE 5.8 mph - -  
4:20 PM 60.8 °F 41.0 °F 48% 29.56 in 6.2 mi North 17.3 mph - N/A   Scattered Clouds
4:50 PM 59.0 °F 41.0 °F 51% 29.56 in 6.2 mi North 16.1 mph - N/A   Scattered Clouds
5:20 PM 59.0 °F 41.0 °F 51% 29.56 in 6.2 mi North 12.7 mph - N/A   Mostly Cloudy
5:50 PM 59.0 °F 39.2 °F 48% 29.56 in 6.2 mi North 16.1 mph - N/A   Mostly Cloudy
6:00 PM 59 °F 44 °F 48% 29.57 in - NNE 3.5 mph - -  
6:20 PM 59.0 °F 39.2 °F 48% 29.56 in 6.2 mi North 16.1 mph - N/A   Mostly Cloudy
6:50 PM 57.2 °F 37.4 °F 48% 29.56 in 6.2 mi North 10.4 mph - N/A Thunderstorm Mostly Cloudy
7:00 PM 58 °F 42 °F 45% 29.57 in - ESE 10.4 mph - -  
7:20 PM 59.0 °F 39.2 °F 48% 29.59 in 6.2 mi East 6.9 mph - N/A   Mostly Cloudy
7:50 PM 57.2 °F 41.0 °F 55% 29.59 in 6.2 mi Variable 8.1 mph 20.7 mph N/A   Mostly Cloudy
8:20 PM 55.4 °F 42.8 °F 63% 29.59 in 6.2 mi Variable 5.8 mph - N/A   Mostly Cloudy
8:50 PM 53.6 °F 44.6 °F 72% 29.62 in 6.2 mi Variable 6.9 mph - N/A   Mostly Cloudy
9:00 PM 53 °F 41 °F 54% 29.63 in - ENE 21.9 mph - -  
9:20 PM 53.6 °F 41.0 °F 62% 29.62 in 6.2 mi Variable 5.8 mph - N/A   Mostly Cloudy
9:50 PM 53.6 °F 41.0 °F 62% 29.65 in 6.2 mi Variable 5.8 mph - N/A   Mostly Cloudy
10:00 PM 52 °F 42 °F 60% 29.66 in - East 17.3 mph - -  
10:20 PM 51.8 °F 42.8 °F 71% 29.65 in 6.2 mi Variable 6.9 mph - N/A   Mostly Cloudy
10:50 PM 51.8 °F 42.8 °F 71% 29.65 in 6.2 mi Variable 4.6 mph - N/A   Partly Cloudy
11:20 PM 50.0 °F 46.4 °F 87% 29.68 in 6.2 mi Variable 4.6 mph - N/A Rain Light Rain
11:50 PM 50.0 °F 46.4 °F 87% 29.65 in 6.2 mi Variable 2.3 mph - N/A Rain Light Rain